Regional Weather Roundup
Issued by NWS

Home | Current Version | Previous Version | Graphics & Text | Print | Product List | Glossary On
Versions: 1 2 3 4 5 6 7 8 9 10 11 12 13 14 15 16 17 18 19 20 21 22 23 24 25 26 27 28 29 30 31 32 33 34 35 36 37 38 39 40 41 42 43 44 45 46 47 48 49 50
927
ASUS44 KMEG 300610
RWRTN
TENNESSEE HOURLY STATE WEATHER ROUNDUP
NATIONAL WEATHER SERVICE MEMPHIS TN
100 AM CDT FRI SEP 30 2016

TNZ002-004-019-021-049-052-054-088>092-300700-
WEST TENNESSEE

CITY           SKY/WX    TMP DP  RH WIND       PRES   REMARKS
MEMPHIS INTL   MOCLDY    63  54  72 N5        30.11F
NWS MEMPHIS      N/A     57 N/A N/A MISG        N/A
JACKSON          N/A    N/A N/A N/A MISG      30.10F
DYERSBURG      MOCLDY   N/A N/A N/A MISG        N/A
UNION CITY     MOCLDY    54  54 100 CALM      30.09F
PARIS          CLEAR     52  52 100 CALM      30.10S
HUNTINGDON     CLEAR     52  52 100 CALM      30.08F FOG
LEXINGTON      CLEAR     48  48 100 CALM      30.09F
$$

TNZ008-025-027-028-033-062-065-066-300700-
NORTH MIDDLE TENNESSEE

CITY           SKY/WX    TMP DP  RH WIND       PRES   REMARKS
NASHVILLE      CLEAR     52  50  93 CALM      30.08F
PORTLAND       CLOUDY    52  52 100 CALM      30.07F
CLARKSVILLE    PTCLDY    52  51  97 CALM      30.08F FOG
SMYRNA         FOG       50  48  93 CALM      30.09F VSB 3/4
COOKEVILLE     CLOUDY    50  50 100 CALM      30.06F
GALLATIN       FOG       50  50 100 CALM      30.10F VSB 0
CROSSVILLE     CLEAR     46  44  93 CALM      30.06F FOG
$$

TNZ061-075-076-078-094-096-097-300700-
SOUTH MIDDLE TENNESSEE

CITY           SKY/WX    TMP DP  RH WIND       PRES   REMARKS
FAYETTEVILLE   CLOUDY    50  48  93 CALM      30.08F
TULLAHOMA      CLEAR     46  45  93 W3        30.09F
WINCHESTER     PTCLDY    52  50  93 CALM      30.08F
MCMINNVILLE    CLOUDY    46  46 100 CALM      30.07F VSB 1/2
COLUMBIA       CLEAR    N/A N/A N/A CALM      30.07F
SHELBYVILLE      N/A     48  48 100 CALM      30.09F VSB 1
$$

TNZ017-018-042-046-047-300700-
NORTHEAST TENNESSEE

CITY           SKY/WX    TMP DP  RH WIND       PRES   REMARKS
TRI CITIES     CLOUDY    58  54  86 CALM      30.04F
ELIZABETHTON   CLOUDY    57  57 100 CALM      30.04F
$$

TNZ012-013-036-069-073-074-300700-
CENTRAL EAST TENNESSEE

CITY           SKY/WX    TMP DP  RH WIND       PRES   REMARKS
KNOXVILLE      PTCLDY    56  47  71 NW6       30.03F
OAK RIDGE      CLEAR     51  47  86 CALM      30.07F
DOWNTOWN KNOXV CLEAR     55  52  88 CALM      30.04F
GATLINBURG     CLOUDY    57  48  72 CALM      30.03F
MORRISTOWN     CLOUDY    55  52  88 CALM      30.03F
JACKSBORO      CLEAR     46  45  93 CALM      30.08F
$$

TNZ083-085-099-300700-
SOUTHEAST TENNESSEE

CITY           SKY/WX    TMP DP  RH WIND       PRES   REMARKS
CHATTANOOGA    CLEAR     56  48  74 NW3       30.06F
$$

SKY/WX REPORTED AS FAIR MEANS FEW OR NO CLOUDS BELOW
12 THOUSAND FEET.





USA.gov is the U.S. government's official web portal to all federal, state and local government web resources and services.